Location: Colebrook
(42.0017°N, 73.0973°W)
Time: 15:33:37
(UTC-05:00)

Vanguard 2 - Pass Details

Date: 02 November 2021
Orbit: 554 x 2936 km, 32.9° (Epoch: 04 December)

Event Time Altitude Azimuth Distance (km) Brightness Sun altitude
Exits shadow 04:21:03 33° 179° (S) 2,370 9.8 -34.8°
Drops below altitude 10° 04:25:58 10° 144° (SE) 3,181 10.9 -33.9°
Sets 04:28:29 0° 135° (SE) 3,873 11.5 -33.4°
